Карточка аэропорта UNWW

Внимание!
Информация на этой странице в стадии наполнения.
Если вы не увидели какой-то информации, или заметили неточность - пожалуйста сообщите нам!
Спасибо!
Команда RU-STAFF
Название аэропортаСпиченково
Название аэропорта (англ.)Spichenkovo
Превышение1023 ft. (311.8 m.)
Координаты53°48.714', 86°52.704'
Высота перехода800m
Эшелон переходаFL050
Коды ответчика5270-5277
Зона ОрВДНовосибирск РПИ (UNNT)
Данные METARUNWW 251030Z VRB01MPS 9999 SCT044 33/19 Q1004 R19/09//55 NOSIG RMK QFE726
Проноз погоды (TAF)UNWW 242000Z 2421/2521 10003G08MPS 8000 SCT040CB TX34/2509Z TN18/2422Z TEMPO 2421/2501 0300 FG BKN002 BKN011CB TEMPO 2506/2521 -TSRA
NOTAMshow/hide NOTAM
AWOS   TABLE

Информация о ВПП

ВПП Длина ВПП (м.) Покрытие Курс ВПП Частота ILS
192679Цементобетон194111.1
012679Цементобетон14 

Диспетчерские позиции

Позывной Наименование органа УВД Частота
UNWW_APPНовокузнецк-Подход118.6
UNWW_TWRНовокузнецк-Старт121.2



Спутниковое изображение